UAL130 RJTT-KEWR

Flight info

Callsign UAL130
Flight time N/A
Altitude 31000
Route INUBO Y808 NOLAX Y812 ADNAP OTR5 KALNA KALIG CUTEE DCT 49N170E 50N180E/N0494F330 51N170W 52N160W 53N150W 54N140W/N0484F350 DCT KATCH DCT 55N130W 54N120W DCT YEGGA DCT FUDGY DCT EMLIK DCT DLH DCT 45N084W DCT HANKK Q140 KODEY DCT HNK FLOSI4
Aircraft B77W/H-SDE1E2E3FGHIJ2J3J4J5M1RWXY/LB1D1

Departure

Time 2026-05-06 07:02
Airport Tokyo Haneda International Airport (RJTT)

Arrival

Time N/A
Airport Newark Liberty International Airport (KEWR)
Time Latitude Longitude Altitude Speed Heading
2026-05-06 06:33 35.54471 139.77100 28 ft 0 kts 240°
2026-05-06 06:54 35.54479 139.77117 27 ft 2 kts 239°
2026-05-06 06:55 35.54487 139.77134 26 ft 2 kts 236°
2026-05-06 06:55 35.54499 139.77150 24 ft 2 kts 216°
2026-05-06 06:55 35.54513 139.77161 31 ft 2 kts 208°
2026-05-06 06:55 35.54528 139.77169 30 ft 2 kts 197°
2026-05-06 06:56 35.54544 139.77174 31 ft 2 kts 182°
2026-05-06 06:56 35.54558 139.77173 31 ft 1 kts 161°
2026-05-06 06:56 35.54560 139.77172 32 ft 0 kts 156°
2026-05-06 06:57 35.54538 139.77183 31 ft 12 kts 159°
2026-05-06 06:57 35.54421 139.77273 29 ft 26 kts 147°
2026-05-06 06:57 35.54360 139.77389 27 ft 13 kts 68°
2026-05-06 06:58 35.54406 139.77483 28 ft 13 kts 58°
2026-05-06 06:58 35.54452 139.77580 27 ft 16 kts 60°
2026-05-06 06:58 35.54548 139.77672 28 ft 15 kts 349°
2026-05-06 06:58 35.54688 139.77578 26 ft 31 kts 329°
2026-05-06 06:59 35.54871 139.77454 30 ft 30 kts 331°
2026-05-06 06:59 35.55051 139.77325 27 ft 30 kts 329°
2026-05-06 06:59 35.55230 139.77195 27 ft 30 kts 329°
2026-05-06 06:59 35.55411 139.77066 28 ft 30 kts 329°
2026-05-06 07:00 35.55555 139.76988 28 ft 7 kts
2026-05-06 07:00 35.55587 139.76999 28 ft 7 kts 22°
2026-05-06 07:00 35.55631 139.77028 27 ft 7 kts 30°
2026-05-06 07:00 35.55671 139.77063 28 ft 7 kts 57°
2026-05-06 07:01 35.55665 139.77126 30 ft 7 kts 109°
2026-05-06 07:01 35.55640 139.77156 30 ft 0 kts 149°
2026-05-06 07:01 35.55639 139.77156 30 ft 2 kts 149°
2026-05-06 07:01 35.55457 139.77288 26 ft 69 kts 149°
2026-05-06 07:02 35.54820 139.77733 26 ft 146 kts 150°
2026-05-06 07:02 35.53714 139.78525 85 ft 206 kts 151°
2026-05-06 07:02 35.52498 139.79453 986 ft 199 kts 150°
2026-05-06 07:02 35.51313 139.80360 1896 ft 208 kts 153°
2026-05-06 07:03 35.49945 139.81277 2386 ft 230 kts 153°
2026-05-06 07:03 35.48515 139.82252 3107 ft 240 kts 153°
2026-05-06 07:03 35.47014 139.83293 3594 ft 253 kts 153°
2026-05-06 07:03 35.45507 139.84417 4147 ft 263 kts 144°
2026-05-06 07:04 35.44389 139.86252 4525 ft 280 kts 108°
2026-05-06 07:04 35.44320 139.88641 5114 ft 288 kts 74°
2026-05-06 07:04 35.45238 139.90849 5644 ft 290 kts 57°
2026-05-06 07:04 35.46317 139.92984 6085 ft 298 kts 61°
2026-05-06 07:05 35.47347 139.95223 6706 ft 300 kts 62°
2026-05-06 07:05 35.48451 139.97365 7324 ft 298 kts 47°
2026-05-06 07:05 35.50169 139.98789 7725 ft 302 kts 13°
2026-05-06 07:05 35.52221 139.98931 8341 ft 294 kts 347°
2026-05-06 07:06 35.54205 139.98345 8942 ft 295 kts 342°
2026-05-06 07:06 35.56198 139.97660 9466 ft 300 kts 342°
2026-05-06 07:06 35.58117 139.96996 10117 ft 301 kts 342°
2026-05-06 07:06 35.59913 139.96375 10561 ft 306 kts 342°
2026-05-06 07:07 35.62048 139.95878 10612 ft 326 kts 359°
2026-05-06 07:07 35.64360 139.96161 10798 ft 340 kts
2026-05-06 07:07 35.66796 139.96453 10923 ft 359 kts
2026-05-06 07:07 35.69328 139.96721 11049 ft 374 kts 10°
2026-05-06 07:08 35.71773 139.98010 11285 ft 388 kts 37°
2026-05-06 07:08 35.73554 140.00490 11814 ft 396 kts 62°
2026-05-06 07:08 35.74406 140.03742 12316 ft 402 kts 86°
2026-05-06 07:08 35.74208 140.07193 12823 ft 402 kts 102°
2026-05-06 07:09 35.73807 140.10661 13099 ft 412 kts 96°
2026-05-06 07:09 35.73641 140.14206 13613 ft 419 kts 93°
2026-05-06 07:09 35.73581 140.17827 14206 ft 425 kts 92°
2026-05-06 07:09 35.73554 140.21483 14723 ft 430 kts 91°
2026-05-06 07:10 35.73526 140.25244 15289 ft 434 kts 92°
2026-05-06 07:10 35.73488 140.28927 15835 ft 439 kts 92°
2026-05-06 07:10 35.73439 140.32732 16384 ft 444 kts 92°
2026-05-06 07:10 35.73382 140.36585 16894 ft 449 kts 92°
2026-05-06 07:11 35.73318 140.40496 17418 ft 454 kts 92°
2026-05-06 07:11 35.73253 140.44360 17946 ft 458 kts 92°
2026-05-06 07:11 35.73184 140.48357 18460 ft 463 kts 92°
2026-05-06 07:11 35.73116 140.52262 18876 ft 468 kts 92°
2026-05-06 07:12 35.73045 140.56242 19327 ft 473 kts 93°
2026-05-06 07:12 35.72970 140.60371 19752 ft 478 kts 93°
2026-05-06 07:12 35.72893 140.64561 20197 ft 482 kts 94°
2026-05-06 07:12 35.72816 140.68685 20635 ft 486 kts 94°
2026-05-06 07:13 35.72737 140.72875 21087 ft 490 kts 94°
2026-05-06 07:13 35.72549 140.77087 21493 ft 493 kts 100°
2026-05-06 07:13 35.71992 140.81230 21906 ft 493 kts 107°
2026-05-06 07:13 35.71108 140.85321 22338 ft 491 kts 114°
2026-05-06 07:14 35.69915 140.89283 22765 ft 492 kts 117°
2026-05-06 07:14 35.69126 140.91837 23028 ft 494 kts 116°
2026-05-06 07:14 35.67913 140.95837 23434 ft 498 kts 116°
2026-05-06 07:14 35.66705 140.99885 23806 ft 502 kts 116°
2026-05-06 07:15 35.65503 141.03953 24115 ft 506 kts 116°
2026-05-06 07:15 35.64297 141.08044 24419 ft 510 kts 116°
2026-05-06 07:15 35.63094 141.12124 24718 ft 513 kts 116°
2026-05-06 07:15 35.62000 141.16372 24958 ft 520 kts 107°
2026-05-06 07:16 35.61738 141.20890 25077 ft 538 kts 88°
2026-05-06 07:16 35.62436 141.25426 25410 ft 544 kts 73°
2026-05-06 07:16 35.63863 141.29761 25767 ft 545 kts 63°
2026-05-06 07:16 35.65554 141.33956 26054 ft 549 kts 63°
2026-05-06 07:17 35.67250 141.38209 26317 ft 553 kts 63°
2026-05-06 07:17 35.68912 141.42443 26603 ft 556 kts 63°
2026-05-06 07:17 35.70613 141.46840 26928 ft 558 kts 64°
2026-05-06 07:17 35.72281 141.51203 27229 ft 561 kts 64°
2026-05-06 07:18 35.73949 141.55600 27523 ft 564 kts 64°
2026-05-06 07:18 35.75602 141.59980 27807 ft 566 kts 64°
2026-05-06 07:18 35.77259 141.64375 28085 ft 569 kts 64°
2026-05-06 07:18 35.78950 141.68869 28359 ft 572 kts 64°
2026-05-06 07:19 35.80635 141.73347 28616 ft 574 kts 64°
2026-05-06 07:19 35.82315 141.77812 28874 ft 576 kts 64°
2026-05-06 07:19 35.84002 141.82303 29116 ft 578 kts 63°
2026-05-06 07:19 35.85722 141.86884 29371 ft 581 kts 63°
2026-05-06 07:20 35.87416 141.91404 29578 ft 583 kts 63°
2026-05-06 07:20 35.89121 141.95960 29787 ft 585 kts 63°
2026-05-06 07:20 35.90851 142.00589 29996 ft 587 kts 63°
2026-05-06 07:20 35.92532 142.05093 30178 ft 590 kts 63°
2026-05-06 07:21 35.94272 142.09766 30353 ft 592 kts 63°
2026-05-06 07:21 35.95998 142.14405 30500 ft 593 kts 63°
2026-05-06 07:21 35.97748 142.19117 30658 ft 595 kts 63°
2026-05-06 07:21 35.99472 142.23765 30806 ft 597 kts 63°
2026-05-06 07:22 36.01232 142.28517 30933 ft 598 kts 63°
2026-05-06 07:22 36.02961 142.33192 31073 ft 600 kts 63°
2026-05-06 07:22 36.04698 142.37897 31128 ft 602 kts 63°
2026-05-06 07:23 36.08150 142.47267 31210 ft 605 kts 63°
2026-05-06 07:23 36.11672 142.56856 31218 ft 608 kts 64°
2026-05-06 07:24 36.15185 142.66450 31201 ft 609 kts 64°
2026-05-06 07:24 36.18659 142.75969 31208 ft 608 kts 64°
2026-05-06 07:25 36.22154 142.85573 31203 ft 607 kts 64°
2026-05-06 07:25 36.25628 142.95148 31208 ft 607 kts 64°
2026-05-06 07:26 36.29062 143.04640 31208 ft 607 kts 64°
2026-05-06 07:26 36.32507 143.14194 31206 ft 607 kts 64°
2026-05-06 07:27 36.35969 143.23827 31212 ft 606 kts 64°
2026-05-06 07:27 36.39378 143.33339 31212 ft 605 kts 64°
2026-05-06 07:28 36.42805 143.42932 31214 ft 605 kts 64°
2026-05-06 07:28 36.47917 143.57298 31213 ft 605 kts 64°
2026-05-06 07:29 36.51336 143.66944 31213 ft 604 kts 64°
2026-05-06 07:29 36.54707 143.76484 31214 ft 604 kts 64°
2026-05-06 07:30 36.57522 143.84472 31221 ft 605 kts 65°
2026-05-06 07:30 36.60903 143.94096 31218 ft 605 kts 65°
2026-05-06 07:31 36.64282 144.03747 31217 ft 605 kts 65°
2026-05-06 07:31 36.67633 144.13344 31223 ft 605 kts 65°
2026-05-06 07:32 36.70994 144.23002 31222 ft 605 kts 65°
2026-05-06 07:32 36.74322 144.32596 31224 ft 605 kts 65°
2026-05-06 07:33 36.77674 144.42291 31222 ft 605 kts 65°
2026-05-06 07:33 36.81019 144.51998 31222 ft 605 kts 65°
2026-05-06 07:34 36.84344 144.61675 31220 ft 605 kts 66°
2026-05-06 07:34 36.87653 144.71340 31223 ft 605 kts 66°
2026-05-06 07:35 36.90965 144.81043 31224 ft 606 kts 66°
2026-05-06 07:35 36.94270 144.90758 31226 ft 607 kts 66°
2026-05-06 07:36 36.97590 145.00548 31226 ft 607 kts 66°
2026-05-06 07:36 37.00888 145.10306 31225 ft 607 kts 66°
2026-05-06 07:37 37.04174 145.20060 31229 ft 608 kts 66°
2026-05-06 07:37 37.07476 145.29897 31229 ft 608 kts 66°
2026-05-06 07:38 37.10720 145.39589 31228 ft 607 kts 66°
2026-05-06 07:38 37.14006 145.49443 31236 ft 607 kts 66°
2026-05-06 07:39 37.17243 145.59180 31235 ft 607 kts 66°
2026-05-06 07:39 37.20714 145.68834 31229 ft 606 kts 59°
2026-05-06 07:40 37.25197 145.77825 31244 ft 604 kts 54°
2026-05-06 07:40 37.29742 145.86708 31241 ft 605 kts 55°
2026-05-06 07:41 37.34227 145.95668 31240 ft 606 kts 55°
2026-05-06 07:41 37.38686 146.04682 31239 ft 606 kts 56°
2026-05-06 07:42 37.43150 146.13730 31242 ft 606 kts 56°
2026-05-06 07:42 37.47626 146.22808 31243 ft 606 kts 56°
2026-05-06 07:43 37.52072 146.31842 31241 ft 608 kts 56°
2026-05-06 07:43 37.56537 146.40941 31244 ft 609 kts 56°
2026-05-06 07:44 37.60980 146.50021 31246 ft 610 kts 56°
2026-05-06 07:44 37.65439 146.59161 31249 ft 610 kts 56°
2026-05-06 07:45 37.69923 146.68377 31251 ft 611 kts 56°
2026-05-06 07:45 37.74368 146.77538 31255 ft 611 kts 56°
2026-05-06 07:46 37.78813 146.86725 31250 ft 612 kts 56°
2026-05-06 07:46 37.83252 146.95925 31249 ft 613 kts 56°
2026-05-06 07:47 37.86960 147.03631 31251 ft 613 kts 55°
2026-05-06 07:47 37.91397 147.12875 31258 ft 613 kts 55°
2026-05-06 07:48 37.95853 147.22185 31259 ft 613 kts 55°
2026-05-06 07:48 38.00265 147.31431 31263 ft 614 kts 55°
2026-05-06 07:49 38.04687 147.40723 31251 ft 614 kts 55°
2026-05-06 07:49 38.09123 147.50072 31275 ft 613 kts 55°
2026-05-06 07:50 38.13495 147.59311 31258 ft 613 kts 55°
2026-05-06 07:50 38.17914 147.68677 31265 ft 614 kts 55°
2026-05-06 07:51 38.22327 147.78056 31264 ft 614 kts 55°
2026-05-06 07:51 38.26682 147.87340 31264 ft 615 kts 55°
2026-05-06 07:52 38.31082 147.96747 31266 ft 615 kts 55°
2026-05-06 07:52 38.35454 148.06124 31266 ft 616 kts 54°
2026-05-06 07:53 38.39819 148.15510 31270 ft 616 kts 54°
2026-05-06 07:53 38.44169 148.24893 31269 ft 616 kts 54°
2026-05-06 07:54 38.48557 148.34384 31271 ft 616 kts 54°
2026-05-06 07:54 38.52919 148.43848 31274 ft 616 kts 54°
2026-05-06 07:55 38.57256 148.53285 31271 ft 615 kts 54°
2026-05-06 07:55 38.61649 148.62874 31268 ft 613 kts 54°
2026-05-06 07:56 38.66050 148.72509 31272 ft 612 kts 54°
2026-05-06 07:56 38.69857 148.80866 31273 ft 611 kts 54°
2026-05-06 07:57 38.74149 148.90313 31275 ft 609 kts 54°
2026-05-06 07:57 38.78462 148.99836 31274 ft 607 kts 54°
2026-05-06 07:58 38.82690 149.09199 31262 ft 606 kts 54°
2026-05-06 07:58 38.86900 149.18551 31271 ft 605 kts 55°
2026-05-06 07:59 38.91104 149.27915 31290 ft 604 kts 55°
2026-05-06 07:59 38.95293 149.37272 31271 ft 603 kts 55°
2026-05-06 08:00 38.99504 149.46710 31280 ft 603 kts 56°
2026-05-06 08:00 39.03684 149.56105 31282 ft 603 kts 56°
2026-05-06 08:01 39.07837 149.65471 31275 ft 603 kts 56°
2026-05-06 08:01 39.11996 149.74875 31278 ft 603 kts 56°
2026-05-06 08:02 39.16477 149.83962 31276 ft 598 kts 48°
2026-05-06 08:02 39.21994 149.91988 31288 ft 591 kts 40°
2026-05-06 08:03 39.27671 149.99695 31279 ft 593 kts 41°
2026-05-06 08:03 39.33320 150.07542 31271 ft 594 kts 41°
2026-05-06 08:04 39.38910 150.15399 31271 ft 594 kts 41°
2026-05-06 08:04 39.44519 150.23303 31274 ft 595 kts 41°
2026-05-06 08:05 39.50127 150.31208 31271 ft 596 kts 41°
2026-05-06 08:05 39.55728 150.39116 31266 ft 596 kts 41°
2026-05-06 08:06 39.61346 150.47071 31266 ft 597 kts 41°
2026-05-06 08:06 39.66982 150.55072 31269 ft 598 kts 41°
2026-05-06 08:07 39.72582 150.63045 31270 ft 598 kts 41°
2026-05-06 08:07 39.78199 150.71061 31271 ft 599 kts 41°
2026-05-06 08:08 39.83830 150.79120 31270 ft 599 kts 41°
2026-05-06 08:08 39.88574 150.85926 31271 ft 599 kts 41°
2026-05-06 08:09 39.94148 150.93943 31273 ft 597 kts 41°
2026-05-06 08:09 39.99717 151.01974 31265 ft 596 kts 41°
2026-05-06 08:10 40.05285 151.10022 31269 ft 595 kts 41°
2026-05-06 08:10 40.10839 151.18070 31254 ft 594 kts 41°
2026-05-06 08:11 40.16367 151.26103 31256 ft 593 kts 41°
2026-05-06 08:11 40.21888 151.34146 31262 ft 592 kts 41°
2026-05-06 08:12 40.27359 151.42143 31262 ft 588 kts 41°
2026-05-06 08:12 40.32852 151.50190 31260 ft 585 kts 41°
2026-05-06 08:13 40.38260 151.58130 31258 ft 583 kts 41°
2026-05-06 08:13 40.43668 151.66091 31260 ft 581 kts 42°
2026-05-06 08:14 40.49055 151.74042 31256 ft 579 kts 42°
2026-05-06 08:14 40.54372 151.81913 31255 ft 577 kts 42°
2026-05-06 08:15 40.59731 151.89864 31247 ft 575 kts 42°
2026-05-06 08:15 40.65021 151.97734 31247 ft 573 kts 43°
2026-05-06 08:16 40.70297 152.05603 31240 ft 571 kts 43°
2026-05-06 08:16 40.75527 152.13426 31239 ft 569 kts 43°
2026-05-06 08:17 40.80763 152.21275 31241 ft 568 kts 43°
2026-05-06 08:17 40.86016 152.29172 31246 ft 567 kts 43°
2026-05-06 08:18 40.91177 152.36950 31229 ft 565 kts 43°
2026-05-06 08:18 40.96383 152.44817 31233 ft 564 kts 44°
2026-05-06 08:19 41.01517 152.52595 31230 ft 562 kts 44°
2026-05-06 08:19 41.06686 152.60446 31228 ft 561 kts 44°
2026-05-06 08:20 41.11802 152.68237 31225 ft 560 kts 44°
2026-05-06 08:20 41.16923 152.76055 31227 ft 560 kts 44°
2026-05-06 08:21 41.22025 152.83864 31220 ft 559 kts 44°
2026-05-06 08:21 41.27139 152.91713 31217 ft 558 kts 44°
2026-05-06 08:22 41.32228 152.99546 31219 ft 557 kts 44°
2026-05-06 08:22 41.37292 153.07359 31215 ft 556 kts 45°
2026-05-06 08:23 41.42338 153.15164 31215 ft 556 kts 45°
2026-05-06 08:23 41.47418 153.23041 31211 ft 556 kts 45°
2026-05-06 08:24 41.52452 153.30868 31206 ft 555 kts 45°
2026-05-06 08:24 41.57475 153.38700 31206 ft 554 kts 45°
2026-05-06 08:25 41.62472 153.46509 31200 ft 554 kts 45°
2026-05-06 08:25 41.67486 153.54367 31199 ft 553 kts 45°
2026-05-06 08:26 41.72483 153.62218 31198 ft 552 kts 45°
2026-05-06 08:26 41.77451 153.70044 31197 ft 551 kts 46°
2026-05-06 08:27 41.82453 153.77946 31191 ft 550 kts 46°
2026-05-06 08:27 41.87355 153.85708 31189 ft 549 kts 46°
2026-05-06 08:28 41.92339 153.93622 31189 ft 549 kts 46°
2026-05-06 08:28 41.97242 154.01427 31189 ft 548 kts 46°
2026-05-06 08:29 42.01339 154.07966 31183 ft 547 kts 46°
2026-05-06 08:29 42.06225 154.15783 31185 ft 546 kts 46°
2026-05-06 08:30 42.11134 154.23656 31178 ft 545 kts 47°
2026-05-06 08:30 42.16003 154.31485 31176 ft 545 kts 47°
2026-05-06 08:31 42.20883 154.39354 31174 ft 544 kts 47°
2026-05-06 08:31 42.25735 154.47198 31170 ft 544 kts 47°
2026-05-06 08:32 42.30582 154.55055 31167 ft 544 kts 47°
2026-05-06 08:32 42.35431 154.62935 31170 ft 543 kts 47°
2026-05-06 08:33 42.40252 154.70792 31164 ft 544 kts 47°
2026-05-06 08:33 42.45089 154.78696 31159 ft 544 kts 47°
2026-05-06 08:34 42.52373 154.90636 31154 ft 544 kts 47°
2026-05-06 08:35 42.57197 154.98571 31153 ft 544 kts 47°
2026-05-06 08:35 42.62033 155.06548 31150 ft 545 kts 47°
2026-05-06 08:36 42.66878 155.14559 31154 ft 545 kts 47°
2026-05-06 08:36 42.71697 155.22552 31138 ft 546 kts 47°
2026-05-06 08:37 42.76526 155.30582 31137 ft 546 kts 47°
2026-05-06 08:37 42.81326 155.38585 31140 ft 547 kts 47°
2026-05-06 08:38 42.86184 155.46708 31137 ft 548 kts 47°
2026-05-06 08:38 42.90975 155.54740 31136 ft 549 kts 47°
2026-05-06 08:39 42.95830 155.62903 31129 ft 549 kts 47°
2026-05-06 08:39 43.00625 155.71021 31129 ft 550 kts 47°
2026-05-06 08:40 43.05366 155.79245 31123 ft 551 kts 48°
2026-05-06 08:40 43.10097 155.87513 31120 ft 552 kts 48°
2026-05-06 08:41 43.14846 155.95814 31116 ft 552 kts 48°
2026-05-06 08:41 43.19625 156.04172 31110 ft 553 kts 47°
2026-05-06 08:42 43.24321 156.12402 31107 ft 554 kts 47°
2026-05-06 08:42 43.29105 156.20813 31108 ft 554 kts 47°
2026-05-06 08:43 43.33850 156.29179 31102 ft 555 kts 47°
2026-05-06 08:43 43.38570 156.37528 31102 ft 556 kts 47°
2026-05-06 08:44 43.43373 156.46046 31098 ft 556 kts 47°
2026-05-06 08:44 43.48117 156.54484 31083 ft 557 kts 47°
2026-05-06 08:45 43.52853 156.62931 31084 ft 557 kts 47°
2026-05-06 08:45 43.57599 156.71422 31089 ft 558 kts 47°
2026-05-06 08:46 43.62362 156.79967 31083 ft 559 kts 47°
2026-05-06 08:46 43.67076 156.88449 31081 ft 560 kts 47°
2026-05-06 08:47 43.71809 156.96991 31077 ft 560 kts 47°
2026-05-06 08:47 43.76557 157.05585 31074 ft 560 kts 47°
2026-05-06 08:48 43.80512 157.12764 31073 ft 560 kts 47°
2026-05-06 08:48 43.86016 157.22782 31073 ft 561 kts 47°
2026-05-06 08:49 43.89969 157.29998 31065 ft 561 kts 47°
2026-05-06 08:49 43.94672 157.38607 31063 ft 561 kts 47°
2026-05-06 08:50 43.99387 157.47263 31060 ft 562 kts 47°
2026-05-06 08:50 44.04139 157.56013 31062 ft 562 kts 47°
2026-05-06 08:51 44.08820 157.64661 31060 ft 562 kts 47°
2026-05-06 08:51 44.13538 157.73401 31056 ft 562 kts 47°
2026-05-06 08:52 44.18219 157.82097 31055 ft 562 kts 47°
2026-05-06 08:52 44.22924 157.90865 31054 ft 562 kts 47°
2026-05-06 08:53 44.27608 157.99622 31053 ft 563 kts 47°
2026-05-06 08:53 44.32260 158.08345 31041 ft 563 kts 47°
2026-05-06 08:54 44.36959 158.17183 31044 ft 563 kts 47°
2026-05-06 08:54 44.41594 158.25927 31044 ft 563 kts 47°
2026-05-06 08:55 44.46255 158.34745 31035 ft 562 kts 47°
2026-05-06 08:55 44.50900 158.43562 31037 ft 562 kts 47°
2026-05-06 08:56 44.55531 158.52378 31036 ft 562 kts 48°
2026-05-06 08:56 44.60158 158.61212 31036 ft 562 kts 48°
2026-05-06 08:57 44.64810 158.70124 31023 ft 561 kts 48°
2026-05-06 08:57 44.69379 158.78903 31022 ft 561 kts 48°
2026-05-06 08:58 44.73990 158.87789 31024 ft 562 kts 48°
2026-05-06 08:58 44.78616 158.96733 31023 ft 561 kts 48°
2026-05-06 08:59 44.83162 159.05550 31011 ft 560 kts 48°
2026-05-06 08:59 44.87739 159.14452 31007 ft 560 kts 48°
2026-05-06 09:00 44.92314 159.23379 31006 ft 560 kts 47°
2026-05-06 09:00 44.96869 159.32295 30999 ft 559 kts 47°
2026-05-06 09:01 45.01393 159.41178 30997 ft 560 kts 47°
2026-05-06 09:01 45.05930 159.50112 30995 ft 560 kts 47°
2026-05-06 09:02 45.10463 159.59068 30980 ft 560 kts 47°
2026-05-06 09:02 45.15005 159.68070 30992 ft 560 kts 47°
2026-05-06 09:03 45.19530 159.77067 30986 ft 561 kts 47°
2026-05-06 09:03 45.24061 159.86102 30981 ft 562 kts 47°
2026-05-06 09:04 45.28588 159.95160 30980 ft 562 kts 47°
2026-05-06 09:04 45.33100 160.04216 30974 ft 563 kts 47°
2026-05-06 09:05 45.37641 160.13361 30973 ft 564 kts 47°
2026-05-06 09:05 45.42134 160.22438 30967 ft 564 kts 47°
2026-05-06 09:06 45.46675 160.31639 30967 ft 565 kts 47°
2026-05-06 09:06 45.51154 160.40745 30968 ft 565 kts 47°
2026-05-06 09:07 45.55696 160.50009 30964 ft 565 kts 47°
2026-05-06 09:07 45.60171 160.59168 30955 ft 566 kts 47°
2026-05-06 09:08 45.64671 160.68406 30954 ft 566 kts 47°
2026-05-06 09:08 45.69172 160.77677 30952 ft 566 kts 47°
2026-05-06 09:09 45.73642 160.86913 30953 ft 566 kts 47°
2026-05-06 09:09 45.78125 160.96208 30948 ft 566 kts 47°
2026-05-06 09:10 45.82603 161.05521 30929 ft 567 kts 47°
2026-05-06 09:10 45.87088 161.14881 30936 ft 568 kts 47°
2026-05-06 09:11 45.91546 161.24217 30935 ft 568 kts 47°
2026-05-06 09:11 45.96019 161.33613 30934 ft 568 kts 47°
2026-05-06 09:12 46.00479 161.43015 30934 ft 568 kts 47°
2026-05-06 09:12 46.04904 161.52375 30930 ft 568 kts 47°
2026-05-06 09:13 46.09374 161.61859 30925 ft 568 kts 47°
2026-05-06 09:13 46.13784 161.71249 30916 ft 569 kts 47°
2026-05-06 09:14 46.18219 161.80722 30914 ft 569 kts 47°
2026-05-06 09:14 46.22638 161.90195 30904 ft 570 kts 47°
2026-05-06 09:15 46.27053 161.99693 30897 ft 570 kts 47°
2026-05-06 09:15 46.31501 162.09292 30896 ft 570 kts 47°
2026-05-06 09:16 46.35876 162.18768 30899 ft 571 kts 47°
2026-05-06 09:16 46.40283 162.28342 30893 ft 572 kts 47°
2026-05-06 09:17 46.44427 162.38280 30888 ft 579 kts 52°
2026-05-06 09:17 46.48346 162.48558 30878 ft 581 kts 52°
2026-05-06 09:18 46.52241 162.58821 30875 ft 581 kts 52°
2026-05-06 09:18 46.56170 162.69114 30868 ft 581 kts 52°
2026-05-06 09:19 46.60108 162.79422 30868 ft 581 kts 52°
2026-05-06 09:19 46.64010 162.89674 30865 ft 582 kts 52°
2026-05-06 09:20 46.67912 162.99973 30865 ft 582 kts 52°
2026-05-06 09:20 46.71178 163.08626 30864 ft 583 kts 52°
2026-05-06 09:21 46.75084 163.19010 30863 ft 584 kts 52°
2026-05-06 09:21 46.78974 163.29394 30841 ft 584 kts 52°
2026-05-06 09:22 46.82874 163.39848 30855 ft 585 kts 52°
2026-05-06 09:22 46.86755 163.50288 30852 ft 585 kts 52°
2026-05-06 09:23 46.90642 163.60786 30851 ft 586 kts 52°
2026-05-06 09:23 46.94515 163.71286 30847 ft 586 kts 52°
2026-05-06 09:24 46.98359 163.81749 30844 ft 587 kts 52°
2026-05-06 09:24 47.02215 163.92284 30844 ft 587 kts 52°
2026-05-06 09:25 47.06074 164.02872 30836 ft 587 kts 53°
2026-05-06 09:25 47.09917 164.13458 30821 ft 588 kts 53°
2026-05-06 09:26 47.13749 164.24055 30830 ft 588 kts 53°
2026-05-06 09:26 47.17566 164.34654 30826 ft 588 kts 53°
2026-05-06 09:27 47.21373 164.45266 30824 ft 588 kts 53°
2026-05-06 09:27 47.25207 164.55996 30823 ft 589 kts 53°
2026-05-06 09:28 47.29006 164.66668 30821 ft 590 kts 53°
2026-05-06 09:28 47.32811 164.77403 30817 ft 591 kts 53°
2026-05-06 09:29 47.36620 164.88198 30813 ft 591 kts 53°
2026-05-06 09:29 47.40386 164.98917 30807 ft 591 kts 53°
2026-05-06 09:30 47.44181 165.09759 30804 ft 590 kts 53°
2026-05-06 09:30 47.47943 165.20547 30804 ft 591 kts 54°
2026-05-06 09:31 47.51664 165.31260 30806 ft 591 kts 54°
2026-05-06 09:31 47.55423 165.42133 30805 ft 591 kts 54°
2026-05-06 09:32 47.59170 165.53017 30791 ft 591 kts 54°
2026-05-06 09:32 47.62873 165.63818 30791 ft 591 kts 54°
2026-05-06 09:33 47.66611 165.74760 30792 ft 591 kts 55°
2026-05-06 09:33 47.70308 165.85631 30795 ft 591 kts 55°
2026-05-06 09:34 47.73985 165.96495 30792 ft 590 kts 55°
2026-05-06 09:34 47.77697 166.07503 30790 ft 590 kts 56°
2026-05-06 09:35 47.81343 166.18364 30792 ft 589 kts 56°
2026-05-06 09:35 47.84996 166.29288 30783 ft 588 kts 56°
2026-05-06 09:36 47.88643 166.40244 30772 ft 587 kts 56°
2026-05-06 09:36 47.92247 166.51115 30779 ft 587 kts 56°
2026-05-06 09:37 47.95874 166.62099 30778 ft 587 kts 57°
2026-05-06 09:37 47.99439 166.72947 30777 ft 586 kts 57°
2026-05-06 09:38 48.03018 166.83883 30775 ft 585 kts 57°
2026-05-06 09:38 48.06589 166.94838 30765 ft 585 kts 57°
2026-05-06 09:39 48.10142 167.05790 30763 ft 584 kts 58°
2026-05-06 09:39 48.13684 167.16753 30760 ft 583 kts 58°
2026-05-06 09:40 48.17207 167.27705 30760 ft 583 kts 58°
2026-05-06 09:40 48.22465 167.44136 30759 ft 582 kts 58°
2026-05-06 09:41 48.25955 167.55105 30757 ft 581 kts 59°
2026-05-06 09:41 48.29425 167.66058 30760 ft 580 kts 59°
2026-05-06 09:42 48.32859 167.76939 30756 ft 580 kts 59°
2026-05-06 09:42 48.36305 167.87911 30749 ft 579 kts 59°
2026-05-06 09:43 48.39737 167.98884 30751 ft 577 kts 60°
2026-05-06 09:43 48.43138 168.09811 30748 ft 577 kts 60°
2026-05-06 09:44 48.46528 168.20745 30748 ft 576 kts 60°
2026-05-06 09:44 48.49904 168.31684 30744 ft 575 kts 60°
2026-05-06 09:45 48.53252 168.42582 30750 ft 573 kts 60°
2026-05-06 09:45 48.56625 168.53606 30751 ft 572 kts 61°
2026-05-06 09:46 48.59922 168.64428 30734 ft 572 kts 61°
2026-05-06 09:46 48.63246 168.75389 30743 ft 571 kts 61°
2026-05-06 09:47 48.66559 168.86366 30738 ft 570 kts 62°
2026-05-06 09:47 48.69830 168.97250 30737 ft 568 kts 62°
2026-05-06 09:48 48.73068 169.08071 30739 ft 567 kts 62°
2026-05-06 09:48 48.76315 169.18971 30738 ft 566 kts 62°
2026-05-06 09:49 48.79537 169.29836 30739 ft 566 kts 62°
2026-05-06 09:49 48.82773 169.40795 30738 ft 564 kts 62°
2026-05-06 09:50 48.85947 169.51596 30734 ft 563 kts 63°
2026-05-06 09:50 48.89143 169.62519 30732 ft 561 kts 63°
2026-05-06 09:51 48.92275 169.73270 30735 ft 560 kts 63°
2026-05-06 09:51 48.95424 169.84130 30734 ft 559 kts 63°
2026-05-06 09:52 48.98554 169.94970 30731 ft 559 kts 64°
2026-05-06 09:52 49.01055 170.06187 30728 ft 562 kts 76°